Regional Weather Roundup
Issued by NWS

Home | Current Version | Previous Version | Graphics & Text | Print | Product List | Glossary On
Versions: 1 2 3 4 5 6 7 8 9 10 11 12 13 14 15 16 17 18 19 20 21 22 23 24 25 26 27 28 29 30 31 32 33 34 35 36 37 38 39 40 41 42 43 44 45 46 47 48 49 50
000
ASUS43 KMKX 191410
RWRWI

WISCONSIN REGIONAL WEATHER ROUNDUP
NATIONAL WEATHER SERVICE MILWAUKEE/SULLIVAN WI
800 AM CST MON FEB 19 2018

NOTE: "FAIR" INDICATES FEW OR NO CLOUDS BELOW 12,000 FEET WITH NO
SIGNIFICANT WEATHER AND/OR OBSTRUCTIONS TO VISIBILITY.

WIZ001-002-006>008-014>016-023>028-191500-
NORTHWEST WISCONSIN

CITY           SKY/WX    TMP DP  RH WIND       PRES   REMARKS
SUPERIOR ARPT  FLURRIES  17   9  71 NE12G20   30.06S WCI   4
ASHLAND        HVY SNOW  18  15  88 N18G25    30.05R VSB 1/4 WCI   2
HAYWARD        LGT SNOW  19  14  81 NE16      29.98R WCI   4
SIREN          CLOUDY    20  15  81 NE15      29.98R WCI   7
CUMBERLAND     CLOUDY    21  14  73 N16       29.92R WCI   7
RICE LAKE      CLOUDY    23  18  81 N14G22    29.94R WCI  11
CHETEK         CLOUDY    24  18  75 N10G20    29.91R WCI  14
LADYSMITH      CLOUDY    24  19  81 N12G21    29.91R WCI  13
EAU CLAIRE     CLOUDY    28  22  78 N9        29.87R WCI  19
MENOMONIE      CLOUDY    28  21  77 N14G21    29.88R WCI  16
NEW RICHMOND   CLOUDY    23  17  77 N15       29.91R WCI  10
OSCEOLA        CLOUDY    22  17  79 N12G20    29.96R WCI  11
$$

WIZ003>005-009-010-017-018-191500-
NORTH CENTRAL WISCONSIN

CITY           SKY/WX    TMP DP  RH WIND       PRES   REMARKS
MANITOWISH WTR CLOUDY    17  17 100 NE12      29.94R WCI   5
ARBOR VITAE    CLOUDY    22  20  93 N7        29.92R WCI  13
WOODRUFF       CLOUDY    22  20  93 N7        29.92R WCI  13
RHINELANDER    CLOUDY    23  21  92 NE8       29.88R WCI  14
EAGLE RIVER    CLOUDY    21  21  98 NE10      29.90R WCI  10
LAND O LAKES   CLOUDY    20  19  95 N7        29.93R WCI  11
PHILLIPS       CLOUDY    19  17  91 N14       29.90R WCI   6
TOMAHAWK       CLOUDY    24  20  83 N7        29.88R WCI  16
MEDFORD        CLOUDY    28  24  82 NE9       29.83R WCI  19
MERRILL        CLOUDY    27  26  96 CALM      29.86R FOG
$$

WIZ029-030-035-036-043>047-191500-
CENTRAL WISCONSIN

CITY           SKY/WX    TMP DP  RH WIND       PRES   REMARKS
WAUSAU         CLOUDY    28  26  92 NE6       29.83R FOG     WCI  22
MOSINEE        CLOUDY    27  27 100 NE6       29.84R FOG     WCI  20
MARSHFIELD     CLOUDY    27  26  96 NE7       29.82R FOG     WCI  19
STEVENS POINT  CLOUDY    27  27 100 NE6       29.84R FOG     WCI  20
WAUPACA        CLOUDY    30  28  92 CALM      29.86R FOG
WAUTOMA        CLOUDY    31  29  92 NE5       29.84R WCI  26
WISC RAPIDS    CLOUDY    30  27  88 NE5       29.84R WCI  25
CAMP DOUGLAS   CLOUDY    35  30  83 CALM      29.80R
$$

WIZ011>013-019>022-031-037>040-048>050-191500-
NORTHEAST WISCONSIN

CITY           SKY/WX    TMP DP  RH WIND       PRES   REMARKS
ANTIGO         CLOUDY    25  25 100 NE7       29.86R FOG     WCI  17
SHAWANO        CLOUDY    28  26  93 CALM      29.89R FOG
OCONTO         FAIR      30  28  94 CALM      29.88R
STURGEON BAY   FAIR      33  31  92 CALM      29.89R FOG
GREEN BAY      FAIR      32  28  85 NE6       29.88R FOG     WCI  26
MANITOWOC      CLOUDY    33  32  96 SE3       29.89R FOG
APPLETON       MOSUNNY   30  27  86 CALM      29.84R
CLINTONVILLE   CLOUDY    27  25  92 N6        29.87R FOG     WCI  21
OSHKOSH        CLOUDY    34  31  88 CALM      29.85R
$$

WIZ032>034-041-042-053>061-191500-
SOUTHWEST WISCONSIN

CITY           SKY/WX    TMP DP  RH WIND       PRES   REMARKS
LA CROSSE      CLOUDY    33  30  88 W6        29.80R WCI  28
SPARTA         CLOUDY    32  30  92 CALM      29.82S
VIROQUA        CLOUDY    35  33  91 E5        29.76S WCI  31
BOSCOBEL       CLOUDY    36  31  82 NE6       29.78S WCI  31
PRAIRIE DU CHI CLOUDY    38  31  76 E3        29.76R
PLATTEVILLE    CLOUDY    36  36  99 E9        29.77S WCI  29
$$

WIZ056-057-062-063-064-067-068-191500-
SOUTH CENTRAL WISCONSIN

CITY           SKY/WX    TMP DP  RH WIND       PRES   REMARKS
REEDSBURG      CLOUDY    37  32  83 E3        29.80R
BARABOO/DELLS  CLOUDY    36  32  84 CALM      29.80R
LONE ROCK      CLOUDY    36  33  89 E7        29.79F WCI  30
MINERAL POINT  CLOUDY    37  37 100 E7        29.76S WCI  32
MADISON        CLOUDY    35  33  92 SE5       29.82R WCI  31
MIDDLETON      CLOUDY    37  35  91 E5        29.80F WCI  33
WATERTOWN      FAIR      35  35 100 CALM      29.83S
MONROE         CLOUDY    36  36 100 SE8       29.78F FOG     WCI  29
JANESVILLE     CLOUDY    36  36 100 E7        29.81F FOG     WCI  30
$$

WIZ051-052-058>065-066-070>072-191500-
SOUTHEAST WISCONSIN

CITY           SKY/WX    TMP DP  RH WIND       PRES   REMARKS
MILWAUKEE      CLOUDY    38  35  89 CALM      29.85F
WAUKESHA       MOSUNNY   34  32  93 CALM      29.85F
MILWAUKEE/TIMM SUNNY     36  34  93 CALM      29.84F
RACINE         FAIR      40  38  93 S7        29.88S
BURLINGTON     FAIR      36  34  93 S3        29.85R FOG
KENOSHA        FAIR      40  37  89 S7        29.86R FOG
FOND DU LAC    CLOUDY    37  31  78 CALM      29.85R
SHEBOYGAN      CLOUDY    34  32  92 CALM      29.87R FOG
WEST BEND      FAIR      37  34  87 CALM      29.85S
JUNEAU         PTSUNNY   33  31  94 SE5       29.84F WCI  28
$$

LSZ147-162-191500-
LAKE SUPERIOR

STATION/POSITION TIME  TEMP    WIND        PRES    WAVE
                       AIR SEA DIR/SP/G            HT/PER
                 (UTC) (F)     (DEG/KT/KT) (MB)    (FT/S)
DEVILS ISLAND    1400   17      40/ 23/ 28 1020.3R
SAXON HARBOR     1340   20      40/ 17/ 22 1017.3R
$$

LMZ867-665-643>646-191500-
LAKE MICHIGAN

STATION/POSITION TIME  TEMP    WIND        PRES    WAVE
                       AIR SEA DIR/SP/G            HT/PER
                 (UTC) (F)     (DEG/KT/KT) (MB)    (FT/S)
NORTHPORT PIER   1340   34                 1012.2R
KEWAUNEE LAKESHO 1348   34      70/  2/  4 1011.0R
SHEBOYGAN LAKESH 1400   35     160/  3/  4 1011.9R
PORT WASHINGTON  1340   35      CALM  /  6 1012.2S
MILWAUKEE LAKESH 1350   35     110/  6/  6   N/A
KENOSHA   LAKESH 1400   35     170/  5/  7 1010.8
$$

TC  - TEMPERATURE IN CELSIUS
VSB - VISIBILITY IN STATUTE MILES
WCI - WIND CHILL INDEX
HX  - HEAT INDEX





USA.gov is the U.S. government's official web portal to all federal, state and local government web resources and services.